Location: Newark
(34.9500°N, 139.9667°E)
Time: 06:47:37
(UTC+00:00)

Altair - Pass Details

Date: 14 December 2019
Orbit: 1502 x 1682 km, 47.2° (Epoch: 25 January)

Event Time Altitude Azimuth Distance (km) Brightness Sun altitude
Rises 09:14:47 0° 215° (SW) 4,862 10.9 -20.9°
Reaches altitude 10° 09:18:02 10° 211° (SSW) 3,856 10.2 -21.6°
Maximum altitude 09:27:32 57° 136° (SE) 1,824 7.6 -23.5°
Enters shadow 09:31:04 39° 81° (E) 2,208 7.8 -24.2°
